^^
Your Local Weather - Clay, NY Station Historical Data
Daily Summary for February 16, 2017 Units:  Metric    English   Both
« Previous Day
Next Day »
Daily Weekly Monthly Yearly Custom
  High: Low: Average:
Temperature: -2.9 °C -5.6 °C -4.9 °C
Dew Point: -4.5 °C -7.7 °C -7 °C
Humidity: 90% 76% 86%
Wind Speed: 9.7km/h 1.6km/h 5.5km/h
Wind Gust: 16.1km/h - -
Wind- - WNW
Pressure: 1010.4 hPa 999.5 hPa -
Precipitation: 0 mm    
Historical Graphs
 
 
Tabular Data for February 16, 2017
Time Temperature Dew Point Pressure Wind Wind Speed Wind Gust Humidity Rainfall Rate (Hourly) solar
00:02 -2.9 °C -4.5 °C 999.5 hPa WNW 6.4 km/h 6.4 km/h 89% 0 mm 0 W/m2
00:08 -3.1 °C -4.6 °C 999.5 hPa WNW 6.4 km/h 6.4 km/h 89% 0 mm 0 W/m2
00:14 -3.1 °C -4.7 °C 999.5 hPa WNW 4.8 km/h 9.7 km/h 89% 0 mm 0 W/m2
00:20 -3.2 °C -4.9 °C 999.5 hPa WNW 4.8 km/h 4.8 km/h 88% 0 mm 0 W/m2
00:26 -3.2 °C -4.8 °C 999.5 hPa WNW 4.8 km/h 11.3 km/h 89% 0 mm 0 W/m2
00:32 -3.3 °C -4.9 °C 999.5 hPa WNW 4.8 km/h 6.4 km/h 89% 0 mm 0 W/m2
00:38 -3.4 °C -5 °C 999.5 hPa NW 4.8 km/h 6.4 km/h 89% 0 mm 0 W/m2
00:44 -3.5 °C -4.9 °C 999.5 hPa WNW 4.8 km/h 4.8 km/h 90% 0 mm 0 W/m2
00:50 -3.6 °C -5 °C 999.5 hPa WNW 4.8 km/h 4.8 km/h 90% 0 mm 0 W/m2
00:56 -3.7 °C -5.1 °C 999.5 hPa WNW 3.2 km/h 4.8 km/h 90% 0 mm 0 W/m2
01:02 -3.7 °C -5.1 °C 999.5 hPa West 4.8 km/h 14.5 km/h 90% 0 mm 0 W/m2
01:08 -3.8 °C -5.3 °C 999.9 hPa WNW 6.4 km/h 14.5 km/h 89% 0 mm 0 W/m2
01:14 -3.8 °C -5.4 °C 999.9 hPa NW 4.8 km/h 6.4 km/h 89% 0 mm 0 W/m2
01:20 -3.9 °C -5.6 °C 999.9 hPa WNW 6.4 km/h 6.4 km/h 88% 0 mm 0 W/m2
01:26 -3.9 °C -5.6 °C 999.9 hPa WNW 6.4 km/h 6.4 km/h 88% 0 mm 0 W/m2
01:32 -3.9 °C -5.8 °C 999.9 hPa WNW 4.8 km/h 8 km/h 87% 0 mm 0 W/m2
01:38 -4.1 °C -6.1 °C 999.9 hPa NW 6.4 km/h 8 km/h 86% 0 mm 0 W/m2
01:44 -4.1 °C -6.1 °C 999.9 hPa West 6.4 km/h 16.1 km/h 86% 0 mm 0 W/m2
01:50 -4.2 °C -6.2 °C 999.9 hPa WSW 6.4 km/h 8 km/h 86% 0 mm 0 W/m2
01:56 -4.2 °C -6.2 °C 999.9 hPa WNW 6.4 km/h 9.7 km/h 86% 0 mm 0 W/m2
02:02 -4.2 °C -6.2 °C 1000.2 hPa WNW 6.4 km/h 6.4 km/h 86% 0 mm 0 W/m2
02:08 -4.3 °C -6.3 °C 1000.2 hPa NW 4.8 km/h 8 km/h 86% 0 mm 0 W/m2
02:14 -4.3 °C -6.5 °C 1000.2 hPa WNW 6.4 km/h 8 km/h 85% 0 mm 0 W/m2
02:20 -4.4 °C -6.6 °C 1000.2 hPa WNW 6.4 km/h 6.4 km/h 85% 0 mm 0 W/m2
02:26 -4.5 °C -6.7 °C 1000.2 hPa WNW 6.4 km/h 9.7 km/h 85% 0 mm 0 W/m2
02:32 -4.6 °C -6.7 °C 1000.2 hPa West 4.8 km/h 6.4 km/h 85% 0 mm 0 W/m2
02:38 -4.6 °C -6.6 °C 1000.2 hPa WNW 4.8 km/h 6.4 km/h 86% 0 mm 0 W/m2
02:44 -4.7 °C -6.5 °C 1000.2 hPa WNW 4.8 km/h 6.4 km/h 87% 0 mm 0 W/m2
02:50 -4.7 °C -6.6 °C 1000.2 hPa WNW 4.8 km/h 4.8 km/h 87% 0 mm 0 W/m2
02:56 -4.8 °C -6.4 °C 1000.2 hPa WNW 3.2 km/h 4.8 km/h 88% 0 mm 0 W/m2
03:02 -4.8 °C -6.4 °C 1000.2 hPa WNW 3.2 km/h 6.4 km/h 88% 0 mm 0 W/m2
03:08 -4.8 °C -6.4 °C 1000.2 hPa WNW 4.8 km/h 6.4 km/h 89% 0 mm 0 W/m2
03:14 -4.8 °C -6.4 °C 1000.2 hPa West 3.2 km/h 4.8 km/h 89% 0 mm 0 W/m2
03:20 -4.8 °C -6.4 °C 1000.2 hPa WNW 3.2 km/h 6.4 km/h 89% 0 mm 0 W/m2
03:26 -4.8 °C -6.4 °C 1000.2 hPa WNW 3.2 km/h 6.4 km/h 89% 0 mm 0 W/m2
03:32 -4.8 °C -6.4 °C 1000.2 hPa WNW 3.2 km/h 6.4 km/h 89% 0 mm 0 W/m2
03:38 -4.9 °C -6.4 °C 1000.2 hPa NNW 3.2 km/h 6.4 km/h 89% 0 mm 0 W/m2
03:44 -4.9 °C -6.4 °C 1000.2 hPa NW 3.2 km/h 3.2 km/h 89% 0 mm 0 W/m2
03:50 -4.9 °C -6.6 °C 1000.6 hPa WNW 3.2 km/h 4.8 km/h 88% 0 mm 0 W/m2
03:56 -4.9 °C -6.6 °C 1000.6 hPa WNW 4.8 km/h 4.8 km/h 88% 0 mm 0 W/m2
04:02 -4.9 °C -6.6 °C 1000.6 hPa WNW 3.2 km/h 4.8 km/h 88% 0 mm 0 W/m2
04:08 -5 °C -6.7 °C 1000.6 hPa West 4.8 km/h 11.3 km/h 88% 0 mm 0 W/m2
04:14 -5 °C -6.7 °C 1000.6 hPa NW 4.8 km/h 4.8 km/h 88% 0 mm 0 W/m2
04:20 -5.1 °C -6.7 °C 1000.9 hPa West 4.8 km/h 6.4 km/h 88% 0 mm 0 W/m2
04:26 -5.1 °C -6.7 °C 1000.9 hPa WNW 4.8 km/h 6.4 km/h 88% 0 mm 0 W/m2
04:32 -5.1 °C -6.8 °C 1000.9 hPa NW 3.2 km/h 3.2 km/h 88% 0 mm 0 W/m2
04:38 -5.1 °C -6.8 °C 1000.9 hPa WNW 3.2 km/h 8 km/h 88% 0 mm 0 W/m2
04:44 -5.1 °C -6.8 °C 1000.9 hPa WNW 3.2 km/h 6.4 km/h 88% 0 mm 0 W/m2
04:50 -5.1 °C -6.8 °C 1000.9 hPa WNW 3.2 km/h 3.2 km/h 88% 0 mm 0 W/m2
04:56 -5.1 °C -6.8 °C 1000.9 hPa NW 1.6 km/h 3.2 km/h 88% 0 mm 0 W/m2
05:02 -5.2 °C -6.8 °C 1000.9 hPa West 4.8 km/h 4.8 km/h 88% 0 mm 0 W/m2
05:08 -5.2 °C -6.8 °C 1000.9 hPa NW 4.8 km/h 4.8 km/h 88% 0 mm 0 W/m2
05:14 -5.2 °C -6.9 °C 1001.2 hPa WNW 4.8 km/h 4.8 km/h 88% 0 mm 0 W/m2
05:20 -5.2 °C -6.8 °C 1001.2 hPa NW 3.2 km/h 3.2 km/h 89% 0 mm 0 W/m2
05:26 -5.2 °C -6.8 °C 1001.2 hPa WNW 3.2 km/h 4.8 km/h 89% 0 mm 0 W/m2
05:32 -5.3 °C -6.8 °C 1001.2 hPa NW 3.2 km/h 11.3 km/h 89% 0 mm 0 W/m2
05:38 -5.3 °C -6.8 °C 1001.2 hPa NW 3.2 km/h 11.3 km/h 89% 0 mm 0 W/m2
05:44 -5.3 °C -6.9 °C 1001.2 hPa NW 3.2 km/h 4.8 km/h 89% 0 mm 0 W/m2
05:50 -5.3 °C -7 °C 1001.6 hPa NW 4.8 km/h 4.8 km/h 88% 0 mm 0 W/m2
05:56 -5.3 °C -7 °C 1001.6 hPa NW 4.8 km/h 6.4 km/h 88% 0 mm 0 W/m2
06:02 -5.4 °C -7.1 °C 1001.6 hPa WNW 4.8 km/h 4.8 km/h 88% 0 mm 0 W/m2
06:08 -5.4 °C -7.1 °C 1001.6 hPa WNW 3.2 km/h 6.4 km/h 88% 0 mm 0 W/m2
06:14 -5.4 °C -7.1 °C 1001.9 hPa West 3.2 km/h 8 km/h 88% 0 mm 0 W/m2
06:20 -5.3 °C -7 °C 1001.9 hPa WNW 4.8 km/h 6.4 km/h 88% 0 mm 0 W/m2
06:26 -5.3 °C -7.2 °C 1001.9 hPa WNW 4.8 km/h 6.4 km/h 87% 0 mm 0 W/m2
06:32 -5.3 °C -7 °C 1001.9 hPa NW 3.2 km/h 3.2 km/h 88% 0 mm 0 W/m2
06:38 -5.3 °C -7 °C 1001.9 hPa WNW 1.6 km/h 3.2 km/h 88% 0 mm 0 W/m2
06:44 -5.3 °C -6.9 °C 1001.9 hPa NW 3.2 km/h 6.4 km/h 88% 0 mm 0 W/m2
06:50 -5.3 °C -6.9 °C 1001.9 hPa NW 3.2 km/h 3.2 km/h 88% 0 mm 0 W/m2
06:56 -5.3 °C -6.9 °C 1001.9 hPa WNW 3.2 km/h 4.8 km/h 88% 0 mm 0 W/m2
07:02 -5.3 °C -6.9 °C 1002.3 hPa WNW 3.2 km/h 12.9 km/h 88% 0 mm 0 W/m2
07:08 -5.3 °C -7 °C 1002.3 hPa WNW 4.8 km/h 12.9 km/h 88% 0 mm 0 W/m2
07:14 -5.3 °C -7.2 °C 1002.3 hPa WNW 6.4 km/h 6.4 km/h 87% 0 mm 0 W/m2
07:20 -5.4 °C -7.2 °C 1002.3 hPa WNW 6.4 km/h 6.4 km/h 87% 0 mm 0 W/m2
07:26 -5.4 °C -7.2 °C 1002.3 hPa West 6.4 km/h 8 km/h 87% 0 mm 5 W/m2
07:32 -5.4 °C -7.2 °C 1002.6 hPa WNW 6.4 km/h 6.4 km/h 87% 0 mm 7 W/m2
07:38 -5.4 °C -7.2 °C 1002.6 hPa WNW 6.4 km/h 6.4 km/h 87% 0 mm 9 W/m2
07:44 -5.4 °C -7.2 °C 1002.6 hPa NW 4.8 km/h 8 km/h 87% 0 mm 11 W/m2
07:50 -5.4 °C -7.2 °C 1002.6 hPa WNW 6.4 km/h 6.4 km/h 87% 0 mm 12 W/m2
07:56 -5.4 °C -7.2 °C 1002.9 hPa West 4.8 km/h 6.4 km/h 87% 0 mm 14 W/m2
08:03 -5.4 °C -7.2 °C 1002.9 hPa WNW 4.8 km/h 4.8 km/h 87% 0 mm 16 W/m2
08:08 -5.4 °C -7.1 °C 1002.9 hPa WNW 4.8 km/h 8 km/h 88% 0 mm 19 W/m2
08:14 -5.4 °C -7.1 °C 1002.9 hPa NW 4.8 km/h 6.4 km/h 88% 0 mm 32 W/m2
08:20 -5.4 °C -7.1 °C 1002.9 hPa NW 3.2 km/h 3.2 km/h 88% 0 mm 47 W/m2
08:22 -5.4 °C -7.1 °C 1003.3 hPa WNW 4.8 km/h 6.4 km/h 88% 0 mm 46 W/m2
08:28 -5.4 °C -7.1 °C 1002.9 hPa SSW 6.4 km/h 8 km/h 88% 0 mm 67 W/m2
08:34 -5.4 °C -7.1 °C 1003.3 hPa WNW 4.8 km/h 6.4 km/h 88% 0 mm 63 W/m2
08:40 -5.4 °C -7.1 °C 1003.6 hPa NW 4.8 km/h 9.7 km/h 88% 0 mm 60 W/m2
08:46 -5.5 °C -7.2 °C 1003.6 hPa West 8 km/h 11.3 km/h 88% 0 mm 81 W/m2
08:52 -5.4 °C -7.1 °C 1003.6 hPa West 6.4 km/h 8 km/h 88% 0 mm 102 W/m2
08:58 -5.4 °C -7.1 °C 1003.6 hPa WNW 6.4 km/h 11.3 km/h 88% 0 mm 128 W/m2
09:04 -5.3 °C -7 °C 1003.6 hPa WNW 6.4 km/h 6.4 km/h 88% 0 mm 121 W/m2
09:10 -5.3 °C -6.9 °C 1003.6 hPa WNW 4.8 km/h 4.8 km/h 88% 0 mm 120 W/m2
09:16 -5.2 °C -6.9 °C 1003.9 hPa WNW 6.4 km/h 11.3 km/h 88% 0 mm 105 W/m2
09:22 -5.3 °C -6.9 °C 1003.9 hPa NW 6.4 km/h 6.4 km/h 88% 0 mm 90 W/m2
09:28 -5.2 °C -6.9 °C 1003.9 hPa West 4.8 km/h 6.4 km/h 88% 0 mm 93 W/m2
09:34 -5.2 °C -7.1 °C 1003.9 hPa NW 4.8 km/h 6.4 km/h 87% 0 mm 95 W/m2
09:40 -5.3 °C -7.1 °C 1003.9 hPa NW 6.4 km/h 14.5 km/h 87% 0 mm 90 W/m2
09:46 -5.3 °C -7.2 °C 1003.9 hPa WNW 6.4 km/h 14.5 km/h 87% 0 mm 100 W/m2
09:52 -5.3 °C -7.1 °C 1003.9 hPa WNW 6.4 km/h 9.7 km/h 87% 0 mm 86 W/m2
09:58 -5.4 °C -7.2 °C 1003.9 hPa WNW 8 km/h 9.7 km/h 87% 0 mm 97 W/m2
10:04 -5.4 °C -7.2 °C 1003.9 hPa WNW 6.4 km/h 8 km/h 87% 0 mm 104 W/m2
10:10 -5.4 °C -7.2 °C 1003.9 hPa West 6.4 km/h 6.4 km/h 87% 0 mm 104 W/m2
10:16 -5.3 °C -7.2 °C 1004.3 hPa WNW 6.4 km/h 6.4 km/h 87% 0 mm 111 W/m2
10:22 -5.3 °C -7.2 °C 1004.3 hPa WNW 6.4 km/h 6.4 km/h 87% 0 mm 121 W/m2
10:28 -5.3 °C -7.1 °C 1004.3 hPa West 4.8 km/h 6.4 km/h 87% 0 mm 139 W/m2
10:34 -5.2 °C -7.1 °C 1004.6 hPa NW 4.8 km/h 8 km/h 87% 0 mm 111 W/m2
10:40 -5.3 °C -7.3 °C 1004.6 hPa West 4.8 km/h 6.4 km/h 86% 0 mm 105 W/m2
10:46 -5.4 °C -7.4 °C 1004.6 hPa NW 6.4 km/h 11.3 km/h 86% 0 mm 123 W/m2
10:52 -5.3 °C -7.3 °C 1004.6 hPa WNW 6.4 km/h 6.4 km/h 86% 0 mm 137 W/m2
10:58 -5.3 °C -7.3 °C 1004.6 hPa WNW 6.4 km/h 11.3 km/h 86% 0 mm 148 W/m2
11:04 -5.3 °C -7.3 °C 1004.6 hPa WNW 6.4 km/h 11.3 km/h 86% 0 mm 153 W/m2
11:10 -5.3 °C -7.3 °C 1005 hPa WNW 6.4 km/h 6.4 km/h 86% 0 mm 130 W/m2
11:16 -5.3 °C -7.3 °C 1005 hPa West 6.4 km/h 9.7 km/h 86% 0 mm 120 W/m2
11:22 -5.3 °C -7.3 °C 1005 hPa WNW 6.4 km/h 8 km/h 86% 0 mm 130 W/m2
11:28 -5.4 °C -7.5 °C 1005 hPa West 6.4 km/h 11.3 km/h 85% 0 mm 135 W/m2
11:34 -5.4 °C -7.5 °C 1005 hPa West 8 km/h 8 km/h 85% 0 mm 134 W/m2
11:40 -5.4 °C -7.6 °C 1005 hPa NW 8 km/h 8 km/h 85% 0 mm 128 W/m2
11:46 -5.4 °C -7.5 °C 1005 hPa WNW 6.4 km/h 8 km/h 85% 0 mm 139 W/m2
11:52 -5.4 °C -7.5 °C 1005 hPa West 4.8 km/h 6.4 km/h 85% 0 mm 137 W/m2
11:58 -5.4 °C -7.6 °C 1005 hPa NW 6.4 km/h 8 km/h 85% 0 mm 134 W/m2
12:04 -5.6 °C -7.7 °C 1005.3 hPa NW 8 km/h 12.9 km/h 85% 0 mm 134 W/m2
12:10 -5.6 °C -7.7 °C 1005.3 hPa NW 8 km/h 8 km/h 85% 0 mm 151 W/m2
12:16 -5.4 °C -7.6 °C 1005.3 hPa NW 6.4 km/h 9.7 km/h 85% 0 mm 207 W/m2
12:22 -5.4 °C -7.7 °C 1005.3 hPa NW 8 km/h 9.7 km/h 84% 0 mm 339 W/m2
12:28 -5.1 °C -7.2 °C 1005.3 hPa WNW 9.7 km/h 11.3 km/h 85% 0 mm 469 W/m2
12:34 -4.4 °C -6.8 °C 1005.3 hPa West 8 km/h 9.7 km/h 83% 0 mm 573 W/m2
12:40 -4.7 °C -7.3 °C 1005.3 hPa NW 8 km/h 8 km/h 82% 0 mm 283 W/m2
12:48 -4.8 °C -7.3 °C 1005.3 hPa WNW 6.4 km/h 11.3 km/h 83% 0 mm 213 W/m2
12:54 -5.1 °C -7.5 °C 1005.3 hPa WNW 8 km/h 11.3 km/h 83% 0 mm 185 W/m2
13:00 -5 °C -7.4 °C 1005.3 hPa West 8 km/h 8 km/h 83% 0 mm 237 W/m2
13:06 -5.1 °C -7.7 °C 1005.3 hPa WSW 8 km/h 12.9 km/h 82% 0 mm 183 W/m2
13:12 -5 °C -7.6 °C 1005.3 hPa WNW 9.7 km/h 9.7 km/h 82% 0 mm 162 W/m2
13:18 -5.1 °C -7.5 °C 1005.3 hPa WNW 8 km/h 11.3 km/h 83% 0 mm 174 W/m2
13:24 -5.1 °C -7.5 °C 1005.3 hPa WNW 6.4 km/h 8 km/h 83% 0 mm 153 W/m2
13:30 -5.1 °C -7.5 °C 1005.6 hPa NW 6.4 km/h 8 km/h 83% 0 mm 153 W/m2
13:36 -5.1 °C -7.5 °C 1005.6 hPa NW 8 km/h 12.9 km/h 83% 0 mm 144 W/m2
13:42 -4.9 °C -7.4 °C 1005.6 hPa WNW 8 km/h 8 km/h 83% 0 mm 163 W/m2
13:48 -4.9 °C -7.4 °C 1005.6 hPa NW 8 km/h 8 km/h 83% 0 mm 167 W/m2
13:54 -4.8 °C -7.3 °C 1005.6 hPa West 6.4 km/h 8 km/h 83% 0 mm 213 W/m2
14:00 -4.7 °C -7.1 °C 1005.6 hPa WNW 6.4 km/h 6.4 km/h 83% 0 mm 239 W/m2
14:06 -4.6 °C -6.8 °C 1005.6 hPa West 4.8 km/h 9.7 km/h 84% 0 mm 146 W/m2
14:12 -4.7 °C -6.9 °C 1005.6 hPa West 4.8 km/h 4.8 km/h 84% 0 mm 121 W/m2
14:18 -5.1 °C -7.3 °C 1005.6 hPa West 6.4 km/h 8 km/h 84% 0 mm 116 W/m2
14:24 -5.1 °C -7.2 °C 1005.6 hPa West 6.4 km/h 9.7 km/h 85% 0 mm 127 W/m2
14:30 -5.3 °C -7.4 °C 1005.6 hPa WSW 8 km/h 8 km/h 85% 0 mm 127 W/m2
14:36 -5.4 °C -7.4 °C 1005.6 hPa WSW 6.4 km/h 8 km/h 86% 0 mm 111 W/m2
14:42 -5.4 °C -7.5 °C 1006 hPa West 6.4 km/h 8 km/h 85% 0 mm 114 W/m2
14:48 -5.4 °C -7.6 °C 1006.3 hPa WNW 6.4 km/h 8 km/h 85% 0 mm 125 W/m2
14:54 -5.4 °C -7.6 °C 1006.3 hPa WNW 6.4 km/h 6.4 km/h 85% 0 mm 107 W/m2
15:00 -5.4 °C -7.5 °C 1006.3 hPa West 6.4 km/h 8 km/h 85% 0 mm 120 W/m2
15:06 -5.4 °C -7.4 °C 1006.3 hPa West 4.8 km/h 9.7 km/h 86% 0 mm 104 W/m2
15:12 -5.4 °C -7.4 °C 1006.3 hPa WNW 4.8 km/h 6.4 km/h 86% 0 mm 104 W/m2
15:18 -5.4 °C -7.4 °C 1006.3 hPa West 6.4 km/h 6.4 km/h 86% 0 mm 104 W/m2
15:24 -5.4 °C -7.4 °C 1006.3 hPa WSW 6.4 km/h 9.7 km/h 86% 0 mm 105 W/m2
15:30 -5.4 °C -7.4 °C 1006.7 hPa West 6.4 km/h 6.4 km/h 86% 0 mm 76 W/m2
15:36 -5.4 °C -7.4 °C 1006.7 hPa WNW 6.4 km/h 6.4 km/h 86% 0 mm 69 W/m2
15:42 -5.5 °C -7.4 °C 1006.7 hPa WNW 6.4 km/h 6.4 km/h 86% 0 mm 51 W/m2
15:48 -5.5 °C -7.4 °C 1006.7 hPa WSW 6.4 km/h 6.4 km/h 86% 0 mm 54 W/m2
15:54 -5.5 °C -7.4 °C 1006.7 hPa NW 6.4 km/h 12.9 km/h 86% 0 mm 62 W/m2
16:00 -5.4 °C -7.4 °C 1006.7 hPa West 8 km/h 8 km/h 86% 0 mm 56 W/m2
16:06 -5.4 °C -7.4 °C 1006.7 hPa West 6.4 km/h 8 km/h 86% 0 mm 47 W/m2
16:12 -5.4 °C -7.4 °C 1007 hPa West 6.4 km/h 8 km/h 86% 0 mm 35 W/m2
16:18 -5.4 °C -7.4 °C 1007 hPa West 6.4 km/h 8 km/h 86% 0 mm 32 W/m2
16:24 -5.5 °C -7.4 °C 1007 hPa WNW 6.4 km/h 8 km/h 86% 0 mm 26 W/m2
16:30 -5.6 °C -7.5 °C 1007 hPa WSW 6.4 km/h 6.4 km/h 86% 0 mm 26 W/m2
16:36 -5.6 °C -7.5 °C 1007 hPa WNW 8 km/h 8 km/h 86% 0 mm 21 W/m2
16:42 -5.6 °C -7.4 °C 1007 hPa WNW 8 km/h 8 km/h 87% 0 mm 19 W/m2
16:48 -5.6 °C -7.6 °C 1007.3 hPa West 6.4 km/h 8 km/h 86% 0 mm 19 W/m2
16:54 -5.6 °C -7.4 °C 1007.3 hPa WSW 6.4 km/h 6.4 km/h 87% 0 mm 14 W/m2
17:00 -5.6 °C -7.4 °C 1007.3 hPa West 4.8 km/h 4.8 km/h 87% 0 mm 12 W/m2
17:06 -5.6 °C -7.4 °C 1007.3 hPa West 4.8 km/h 8 km/h 87% 0 mm 9 W/m2
17:12 -5.6 °C -7.4 °C 1007.3 hPa West 4.8 km/h 9.7 km/h 87% 0 mm 5 W/m2
17:18 -5.6 °C -7.5 °C 1007.7 hPa West 6.4 km/h 9.7 km/h 86% 0 mm 5 W/m2
17:24 -5.6 °C -7.5 °C 1007.7 hPa WSW 6.4 km/h 8 km/h 86% 0 mm 0 W/m2
17:30 -5.6 °C -7.7 °C 1008 hPa WNW 6.4 km/h 6.4 km/h 85% 0 mm 0 W/m2
17:36 -5.5 °C -7.4 °C 1008 hPa NW 4.8 km/h 6.4 km/h 86% 0 mm 0 W/m2
17:42 -5.5 °C -7.4 °C 1008 hPa West 4.8 km/h 4.8 km/h 86% 0 mm 0 W/m2
17:48 -5.4 °C -7.4 °C 1008 hPa West 6.4 km/h 9.7 km/h 86% 0 mm 0 W/m2
17:54 -5.4 °C -7.4 °C 1008 hPa West 4.8 km/h 11.3 km/h 86% 0 mm 0 W/m2
18:00 -5.5 °C -7.4 °C 1008.4 hPa NW 4.8 km/h 4.8 km/h 86% 0 mm 0 W/m2
18:06 -5.5 °C -7.4 °C 1008.4 hPa WNW 4.8 km/h 6.4 km/h 86% 0 mm 0 W/m2
18:12 -5.5 °C -7.4 °C 1008.4 hPa SSW 4.8 km/h 9.7 km/h 86% 0 mm 0 W/m2
18:18 -5.5 °C -7.4 °C 1008.4 hPa WNW 4.8 km/h 9.7 km/h 86% 0 mm 0 W/m2
18:24 -5.5 °C -7.4 °C 1008.7 hPa West 4.8 km/h 6.4 km/h 86% 0 mm 0 W/m2
18:30 -5.5 °C -7.4 °C 1008.7 hPa WNW 4.8 km/h 4.8 km/h 86% 0 mm 0 W/m2
18:36 -5.5 °C -7.4 °C 1008.7 hPa WNW 4.8 km/h 4.8 km/h 86% 0 mm 0 W/m2
18:42 -5.5 °C -7.4 °C 1009 hPa WSW 4.8 km/h 6.4 km/h 86% 0 mm 0 W/m2
18:48 -5.4 °C -7.4 °C 1009 hPa SSW 4.8 km/h 6.4 km/h 86% 0 mm 0 W/m2
18:54 -5.4 °C -7.4 °C 1009 hPa WSW 4.8 km/h 4.8 km/h 86% 0 mm 0 W/m2
19:00 -5.4 °C -7.4 °C 1009 hPa WSW 4.8 km/h 4.8 km/h 86% 0 mm 0 W/m2
19:06 -5.4 °C -7.4 °C 1009 hPa West 4.8 km/h 6.4 km/h 86% 0 mm 0 W/m2
19:12 -5.3 °C -7.3 °C 1009 hPa WSW 4.8 km/h 4.8 km/h 86% 0 mm 0 W/m2
19:18 -5.3 °C -7.3 °C 1009 hPa WSW 4.8 km/h 6.4 km/h 86% 0 mm 0 W/m2
19:24 -5.3 °C -7.4 °C 1009 hPa West 4.8 km/h 8 km/h 85% 0 mm 0 W/m2
19:30 -5.2 °C -7.3 °C 1009 hPa SW 4.8 km/h 4.8 km/h 85% 0 mm 0 W/m2
19:36 -5.2 °C -7.3 °C 1009 hPa WSW 4.8 km/h 11.3 km/h 85% 0 mm 0 W/m2
19:42 -5.2 °C -7.4 °C 1009 hPa WSW 4.8 km/h 4.8 km/h 84% 0 mm 0 W/m2
19:48 -5.1 °C -7.2 °C 1009 hPa SW 4.8 km/h 9.7 km/h 85% 0 mm 0 W/m2
19:54 -5.1 °C -7.2 °C 1009 hPa WSW 4.8 km/h 8 km/h 85% 0 mm 0 W/m2
20:00 -5.1 °C -7.2 °C 1009 hPa WSW 4.8 km/h 8 km/h 85% 0 mm 0 W/m2
20:06 -5.1 °C -7.2 °C 1009.4 hPa WSW 4.8 km/h 8 km/h 85% 0 mm 0 W/m2
20:12 -5.1 °C -7.2 °C 1009.4 hPa West 4.8 km/h 11.3 km/h 85% 0 mm 0 W/m2
20:18 -5.1 °C -7.2 °C 1009.4 hPa WSW 4.8 km/h 11.3 km/h 85% 0 mm 0 W/m2
20:24 -5 °C -7.1 °C 1009.4 hPa West 3.2 km/h 6.4 km/h 85% 0 mm 0 W/m2
20:30 -4.9 °C -7.1 °C 1009.4 hPa WSW 4.8 km/h 8 km/h 85% 0 mm 0 W/m2
20:36 -4.9 °C -7.1 °C 1009.4 hPa SW 4.8 km/h 8 km/h 85% 0 mm 0 W/m2
20:42 -4.8 °C -6.9 °C 1009.4 hPa West 4.8 km/h 9.7 km/h 85% 0 mm 0 W/m2
20:48 -4.8 °C -7.1 °C 1009.7 hPa West 4.8 km/h 9.7 km/h 84% 0 mm 0 W/m2
20:54 -4.8 °C -7.1 °C 1009.7 hPa West 3.2 km/h 4.8 km/h 84% 0 mm 0 W/m2
21:00 -4.8 °C -7.1 °C 1009.7 hPa West 3.2 km/h 3.2 km/h 84% 0 mm 0 W/m2
21:06 -4.7 °C -7 °C 1010 hPa West 3.2 km/h 4.8 km/h 84% 0 mm 0 W/m2
21:12 -4.7 °C -7 °C 1010 hPa WNW 3.2 km/h 6.4 km/h 84% 0 mm 0 W/m2
21:18 -4.7 °C -6.9 °C 1010 hPa West 3.2 km/h 6.4 km/h 84% 0 mm 0 W/m2
21:24 -4.7 °C -6.9 °C 1010 hPa West 3.2 km/h 3.2 km/h 84% 0 mm 0 W/m2
21:32 -4.6 °C -6.9 °C 1010 hPa WSW 3.2 km/h 3.2 km/h 84% 0 mm 0 W/m2
21:38 -4.6 °C -6.8 °C 1010 hPa West 3.2 km/h 3.2 km/h 84% 0 mm 0 W/m2
21:44 -4.2 °C -6.8 °C 1010 hPa WNW 4.8 km/h 8 km/h 82% 0 mm 0 W/m2
21:50 -3.8 °C -6.8 °C 1010 hPa WSW 4.8 km/h 11.3 km/h 80% 0 mm 0 W/m2
21:56 -3.7 °C -6.9 °C 1010 hPa WNW 4.8 km/h 11.3 km/h 78% 0 mm 0 W/m2
22:02 -3.6 °C -7.1 °C 1010 hPa WNW 6.4 km/h 11.3 km/h 77% 0 mm 0 W/m2
22:08 -3.6 °C -7 °C 1010 hPa NW 8 km/h 11.3 km/h 77% 0 mm 0 W/m2
22:14 -3.6 °C -7 °C 1010 hPa WNW 8 km/h 8 km/h 77% 0 mm 0 W/m2
22:20 -3.6 °C -7.1 °C 1010 hPa WNW 6.4 km/h 6.4 km/h 77% 0 mm 0 W/m2
22:26 -3.7 °C -7.1 °C 1010 hPa WNW 4.8 km/h 6.4 km/h 77% 0 mm 0 W/m2
22:32 -3.7 °C -7.1 °C 1010 hPa WNW 4.8 km/h 6.4 km/h 77% 0 mm 0 W/m2
22:38 -3.7 °C -7.1 °C 1010 hPa WNW 6.4 km/h 12.9 km/h 77% 0 mm 0 W/m2
22:44 -3.7 °C -7.3 °C 1010 hPa WNW 4.8 km/h 6.4 km/h 76% 0 mm 0 W/m2
22:50 -3.7 °C -7.3 °C 1010 hPa WNW 6.4 km/h 9.7 km/h 76% 0 mm 0 W/m2
22:56 -3.7 °C -7.3 °C 1010 hPa NW 6.4 km/h 9.7 km/h 76% 0 mm 0 W/m2
23:02 -3.7 °C -7.3 °C 1010 hPa WNW 6.4 km/h 14.5 km/h 76% 0 mm 0 W/m2
23:08 -3.7 °C -7.3 °C 1010 hPa WSW 8 km/h 14.5 km/h 76% 0 mm 0 W/m2
23:14 -3.7 °C -7.3 °C 1010 hPa WNW 8 km/h 11.3 km/h 76% 0 mm 0 W/m2
23:20 -3.7 °C -7.3 °C 1010 hPa WNW 8 km/h 11.3 km/h 76% 0 mm 0 W/m2
23:26 -3.7 °C -7.3 °C 1010 hPa NW 6.4 km/h 11.3 km/h 76% 0 mm 0 W/m2
23:32 -3.8 °C -7.4 °C 1010 hPa WNW 6.4 km/h 6.4 km/h 76% 0 mm 0 W/m2
23:38 -3.8 °C -7.4 °C 1010 hPa WNW 6.4 km/h 11.3 km/h 76% 0 mm 0 W/m2
23:44 -3.8 °C -7.4 °C 1010.4 hPa West 6.4 km/h 12.9 km/h 76% 0 mm 0 W/m2
23:50 -3.8 °C -7.4 °C 1010.4 hPa NW 6.4 km/h 6.4 km/h 76% 0 mm 0 W/m2
23:56 -3.8 °C -7.4 °C 1010.4 hPa WNW 6.4 km/h 9.7 km/h 76% 0 mm 0 W/m2
Country Meadow, Clay, NY, USA
Compliments of Weather Underground - 2 mb